When you browse on this site, cookies collect data to enhance your experience and personalize the content and advertising you see.
Visit our Privacy Policy to learn more. By continuing to use the site, you agree to this use of cookies and data.

Hourly Weather Gjirokaster

Today, 6 August, Thursday

Time Temperature Precipitation Wind Pressure Humidity
00:00 +14°C° 0.2 mm 1 mps 648 mmHg 81%
01:00 +14°C° 0 mm 1 mps 648 mmHg 83%
02:00 +14°C° 0.1 mm 1 mps 648 mmHg 83%
03:00 +14°C° 0.1 mm 1 mps 648 mmHg 83%
04:00 +14°C° 0.1 mm 1 mps 648 mmHg 83%
05:00 +15°C° 0.7 mm 1 mps 648 mmHg 79%
06:00 +16°C° 0.7 mm 1 mps 649 mmHg 76%
07:00 +18°C° 0 mm 1 mps 649 mmHg 72%
08:00 +19°C° 0.7 mm 1 mps 650 mmHg 65%
09:00 +19°C° 0.7 mm 2 mps 650 mmHg 59%
10:00 +20°C° 0.7 mm 2 mps 651 mmHg 52%
11:00 +21°C° 0.6 mm 2 mps 651 mmHg 51%
12:00 +21°C° 0.6 mm 2 mps 651 mmHg 50%
13:00 +21°C° 0.6 mm 2 mps 651 mmHg 48%
14:00 +21°C° 1.2 mm 2 mps 651 mmHg 52%
15:00 +20°C° 1.2 mm 2 mps 651 mmHg 55%
16:00 +20°C° 1.2 mm 1 mps 651 mmHg 58%
17:00 +19°C° 0.8 mm 1 mps 650 mmHg 65%
18:00 +18°C° 0.8 mm 1 mps 650 mmHg 71%
19:00 +16°C° 0.8 mm 1 mps 650 mmHg 77%
20:00 +15°C° 0.1 mm 1 mps 650 mmHg 77%
21:00 +15°C° 0.1 mm 1 mps 650 mmHg 78%
22:00 +14°C° 0.1 mm 1 mps 650 mmHg 79%
23:00 +14°C° 0 mm 1 mps 650 mmHg 78%

Tomorrow, 7 August, Friday

Time Temperature Precipitation Wind Pressure Humidity
00:00 +14°C° 0 mm 1 mps 650 mmHg 78%
01:00 +14°C° 0 mm 1 mps 650 mmHg 78%
02:00 +14°C° 0 mm 1 mps 650 mmHg 78%
03:00 +13°C° 0 mm 1 mps 649 mmHg 78%
04:00 +13°C° 0 mm 1 mps 649 mmHg 78%
05:00 +14°C° 0 mm 1 mps 650 mmHg 74%
06:00 +16°C° 0 mm 1 mps 650 mmHg 69%
07:00 +18°C° 0 mm 1 mps 651 mmHg 65%
08:00 +19°C° 0 mm 1 mps 652 mmHg 59%
09:00 +21°C° 0 mm 1 mps 652 mmHg 54%
10:00 +23°C° 0 mm 1 mps 653 mmHg 48%
11:00 +23°C° 0.1 mm 1 mps 653 mmHg 48%
12:00 +23°C° 0.1 mm 2 mps 653 mmHg 48%
13:00 +23°C° 0.1 mm 2 mps 653 mmHg 48%
14:00 +21°C° 0.5 mm 2 mps 652 mmHg 52%
15:00 +20°C° 0.5 mm 2 mps 652 mmHg 56%
16:00 +20°C° 0.5 mm 2 mps 652 mmHg 60%
17:00 +19°C° 0.3 mm 2 mps 651 mmHg 65%
18:00 +18°C° 0.3 mm 1 mps 651 mmHg 71%
19:00 +16°C° 0.3 mm 1 mps 651 mmHg 76%
20:00 +16°C° 0 mm 1 mps 651 mmHg 77%
21:00 +15°C° 0 mm 1 mps 651 mmHg 79%
22:00 +15°C° 0 mm 1 mps 651 mmHg 80%
23:00 +15°C° 0 mm 1 mps 651 mmHg 80%

Day after tomorrow, 8 August, Saturday

Time Temperature Precipitation Wind Pressure Humidity
00:00 +15°C° 0 mm 1 mps 650 mmHg 81%
01:00 +14°C° 0 mm 1 mps 650 mmHg 81%
02:00 +14°C° 0 mm 1 mps 650 mmHg 81%
03:00 +14°C° 0 mm 1 mps 650 mmHg 81%
04:00 +14°C° 0 mm 1 mps 650 mmHg 81%
05:00 +15°C° 0 mm 1 mps 650 mmHg 76%
06:00 +16°C° 0 mm 1 mps 650 mmHg 71%
07:00 +18°C° 0 mm 1 mps 651 mmHg 66%
08:00 +20°C° 0 mm 1 mps 651 mmHg 60%
09:00 +21°C° 0 mm 1 mps 652 mmHg 55%
10:00 +23°C° 0 mm 1 mps 652 mmHg 49%
11:00 +23°C° 0.4 mm 2 mps 652 mmHg 50%
12:00 +23°C° 0.4 mm 2 mps 652 mmHg 50%
13:00 +23°C° 0.4 mm 2 mps 652 mmHg 50%
14:00 +21°C° 0.6 mm 2 mps 651 mmHg 55%
15:00 +20°C° 0.6 mm 2 mps 651 mmHg 60%
16:00 +19°C° 0.6 mm 2 mps 651 mmHg 65%
17:00 +19°C° 0.5 mm 2 mps 650 mmHg 69%
18:00 +18°C° 0.5 mm 2 mps 650 mmHg 72%
19:00 +18°C° 0.5 mm 1 mps 650 mmHg 75%
20:00 +16°C° 0 mm 1 mps 650 mmHg 75%
21:00 +16°C° 0 mm 2 mps 650 mmHg 74%
22:00 +15°C° 0 mm 2 mps 650 mmHg 74%
23:00 +15°C° 0 mm 2 mps 650 mmHg 74%

9 August, Sunday

Time Temperature Precipitation Wind Pressure Humidity
00:00 +15°C° 0 mm 2 mps 650 mmHg 74%
01:00 +15°C° 0 mm 2 mps 649 mmHg 74%
02:00 +15°C° 0 mm 2 mps 649 mmHg 75%
03:00 +15°C° 0 mm 2 mps 649 mmHg 76%
04:00 +15°C° 0 mm 2 mps 649 mmHg 77%
05:00 +16°C° 0 mm 2 mps 649 mmHg 73%
06:00 +17°C° 0 mm 2 mps 650 mmHg 69%
07:00 +19°C° 0 mm 1 mps 650 mmHg 65%
08:00 +20°C° 0 mm 1 mps 651 mmHg 58%
09:00 +21°C° 0 mm 2 mps 651 mmHg 51%
10:00 +24°C° 0 mm 2 mps 652 mmHg 44%
11:00 +25°C° 0 mm 2 mps 652 mmHg 42%
12:00 +25°C° 0 mm 2 mps 652 mmHg 40%
13:00 +26°C° 0 mm 3 mps 652 mmHg 37%
14:00 +25°C° 0 mm 3 mps 652 mmHg 41%
15:00 +24°C° 0 mm 3 mps 652 mmHg 45%
16:00 +24°C° 0 mm 3 mps 652 mmHg 49%
17:00 +21°C° 0 mm 3 mps 651 mmHg 54%
18:00 +20°C° 0 mm 2 mps 651 mmHg 59%
19:00 +20°C° 0 mm 1 mps 651 mmHg 63%
20:00 +19°C° 0 mm 1 mps 651 mmHg 64%
21:00 +19°C° 0 mm 1 mps 651 mmHg 65%
22:00 +18°C° 0 mm 1 mps 651 mmHg 66%
23:00 +18°C° 0.1 mm 1 mps 651 mmHg 66%

10 August, Monday

Time Temperature Precipitation Wind Pressure Humidity
00:00 +18°C° 0.1 mm 1 mps 651 mmHg 67%
01:00 +16°C° 0.1 mm 1 mps 651 mmHg 67%
02:00 +16°C° 0.1 mm 1 mps 651 mmHg 67%
03:00 +16°C° 0.1 mm 1 mps 651 mmHg 68%
04:00 +16°C° 0.1 mm 1 mps 651 mmHg 68%
05:00 +18°C° 0 mm 1 mps 651 mmHg 64%
06:00 +19°C° 0 mm 1 mps 652 mmHg 61%
07:00 +21°C° 0 mm 1 mps 652 mmHg 57%
08:00 +22°C° 0 mm 1 mps 653 mmHg 52%
09:00 +24°C° 0 mm 1 mps 653 mmHg 47%
10:00 +25°C° 0 mm 1 mps 654 mmHg 42%
11:00 +25°C° 0 mm 1 mps 654 mmHg 42%
12:00 +25°C° 0 mm 1 mps 654 mmHg 41%
13:00 +25°C° 0 mm 1 mps 653 mmHg 41%
14:00 +25°C° 0.1 mm 1 mps 653 mmHg 44%
15:00 +24°C° 0.1 mm 1 mps 653 mmHg 47%
16:00 +23°C° 0.1 mm 1 mps 653 mmHg 50%
17:00 +22°C° 0.8 mm 1 mps 652 mmHg 56%
18:00 +21°C° 0.8 mm 1 mps 652 mmHg 61%
19:00 +20°C° 0.8 mm 1 mps 652 mmHg 67%
20:00 +19°C° 0.4 mm 1 mps 652 mmHg 68%
21:00 +19°C° 0.4 mm 1 mps 652 mmHg 70%
22:00 +18°C° 0.4 mm 1 mps 653 mmHg 72%
23:00 +18°C° 0 mm 1 mps 653 mmHg 72%

11 August, Tuesday

Time Temperature Precipitation Wind Pressure Humidity
00:00 +18°C° 0 mm 1 mps 652 mmHg 73%
01:00 +16°C° 0 mm 1 mps 652 mmHg 73%
02:00 +16°C° 0 mm 1 mps 652 mmHg 73%
03:00 +16°C° 0 mm 1 mps 652 mmHg 73%
04:00 +15°C° 0 mm 1 mps 652 mmHg 73%
05:00 +18°C° 0 mm 1 mps 652 mmHg 68%
06:00 +19°C° 0 mm 1 mps 653 mmHg 64%
07:00 +20°C° 0 mm 1 mps 653 mmHg 59%
08:00 +22°C° 0 mm 1 mps 654 mmHg 53%
09:00 +24°C° 0 mm 1 mps 654 mmHg 46%
10:00 +25°C° 0 mm 1 mps 655 mmHg 40%
11:00 +26°C° 0 mm 1 mps 655 mmHg 39%
12:00 +26°C° 0 mm 2 mps 655 mmHg 38%
13:00 +26°C° 0 mm 2 mps 655 mmHg 37%
14:00 +26°C° 0 mm 3 mps 654 mmHg 40%
15:00 +25°C° 0 mm 3 mps 654 mmHg 43%
16:00 +24°C° 0 mm 3 mps 654 mmHg 46%
17:00 +23°C° 0 mm 2 mps 653 mmHg 52%
18:00 +20°C° 0 mm 2 mps 653 mmHg 57%
19:00 +20°C° 0 mm 1 mps 653 mmHg 63%
20:00 +19°C° 0 mm 1 mps 653 mmHg 63%
21:00 +19°C° 0 mm 1 mps 653 mmHg 63%
22:00 +18°C° 0 mm 1 mps 653 mmHg 64%
23:00 +18°C° 0 mm 1 mps 652 mmHg 64%
Show more